• In United Kingdom
  • List of Countries
  • For 7 days
  • Water Temperature
  • Satellite Maps
  • Weather Map
  • Weather Widgets
  • user-avatar
    Login

    Hourly Weather Annaba

    Today, 23 August, Wednesday

    Time Temperature Precipitation Wind Pressure Humidity
    00:00 +26°C° 0 mm 1 mps 761 mmHg 72%
    01:00 +26°C° 0 mm 1 mps 761 mmHg 73%
    02:00 +25°C° 0 mm 1 mps 760 mmHg 73%
    03:00 +25°C° 0 mm 1 mps 760 mmHg 73%
    04:00 +25°C° 0 mm 1 mps 760 mmHg 73%
    05:00 +25°C° 0 mm 1 mps 760 mmHg 71%
    06:00 +26°C° 0 mm 1 mps 761 mmHg 68%
    07:00 +26°C° 0 mm 1 mps 761 mmHg 66%
    08:00 +28°C° 0 mm 1 mps 761 mmHg 58%
    09:00 +31°C° 0 mm 1 mps 761 mmHg 50%
    10:00 +34°C° 0 mm 2 mps 761 mmHg 41%
    11:00 +35°C° 0 mm 2 mps 761 mmHg 37%
    12:00 +36°C° 0 mm 3 mps 761 mmHg 33%
    13:00 +37°C° 0 mm 4 mps 761 mmHg 29%
    14:00 +37°C° 0 mm 4 mps 761 mmHg 30%
    15:00 +37°C° 0 mm 5 mps 760 mmHg 31%
    16:00 +37°C° 0 mm 5 mps 760 mmHg 32%
    17:00 +35°C° 0 mm 5 mps 760 mmHg 37%
    18:00 +33°C° 0 mm 5 mps 760 mmHg 43%
    19:00 +32°C° 0 mm 4 mps 760 mmHg 48%
    20:00 +30°C° 0 mm 4 mps 761 mmHg 53%
    21:00 +29°C° 0 mm 3 mps 761 mmHg 57%
    22:00 +28°C° 0 mm 3 mps 762 mmHg 61%
    23:00 +28°C° 0 mm 2 mps 761 mmHg 61%

    Tomorrow, 24 August, Thursday

    Time Temperature Precipitation Wind Pressure Humidity
    00:00 +28°C° 0 mm 2 mps 761 mmHg 62%
    01:00 +27°C° 0 mm 2 mps 761 mmHg 62%
    02:00 +27°C° 0 mm 2 mps 761 mmHg 62%
    03:00 +27°C° 0 mm 2 mps 761 mmHg 62%
    04:00 +27°C° 0 mm 2 mps 760 mmHg 61%
    05:00 +27°C° 0 mm 2 mps 761 mmHg 60%
    06:00 +27°C° 0 mm 2 mps 761 mmHg 59%
    07:00 +28°C° 0 mm 2 mps 761 mmHg 57%
    08:00 +30°C° 0 mm 2 mps 761 mmHg 50%
    09:00 +33°C° 0 mm 3 mps 761 mmHg 43%
    10:00 +36°C° 0 mm 3 mps 761 mmHg 35%
    11:00 +37°C° 0 mm 3 mps 761 mmHg 32%
    12:00 +38°C° 0 mm 4 mps 761 mmHg 29%
    13:00 +40°C° 0 mm 5 mps 760 mmHg 26%
    14:00 +40°C° 0 mm 5 mps 760 mmHg 27%
    15:00 +40°C° 0 mm 6 mps 760 mmHg 27%
    16:00 +40°C° 0 mm 6 mps 760 mmHg 28%
    17:00 +38°C° 0 mm 6 mps 760 mmHg 32%
    18:00 +35°C° 0 mm 6 mps 760 mmHg 36%
    19:00 +34°C° 0 mm 5 mps 760 mmHg 41%
    20:00 +33°C° 0 mm 5 mps 760 mmHg 44%
    21:00 +32°C° 0 mm 4 mps 761 mmHg 47%
    22:00 +30°C° 0 mm 4 mps 761 mmHg 51%
    23:00 +30°C° 0 mm 3 mps 761 mmHg 50%

    Day after tomorrow, 25 August, Friday

    Time Temperature Precipitation Wind Pressure Humidity
    00:00 +29°C° 0 mm 3 mps 761 mmHg 50%
    01:00 +29°C° 0 mm 3 mps 760 mmHg 49%
    02:00 +29°C° 0 mm 3 mps 760 mmHg 49%
    03:00 +29°C° 0 mm 3 mps 760 mmHg 48%
    04:00 +28°C° 0 mm 3 mps 760 mmHg 47%
    05:00 +29°C° 0 mm 3 mps 760 mmHg 48%
    06:00 +29°C° 0 mm 3 mps 760 mmHg 48%
    07:00 +29°C° 0 mm 3 mps 760 mmHg 49%
    08:00 +33°C° 0 mm 3 mps 760 mmHg 43%
    09:00 +35°C° 0 mm 3 mps 760 mmHg 38%
    10:00 +38°C° 0 mm 3 mps 760 mmHg 32%
    11:00 +39°C° 0 mm 3 mps 760 mmHg 29%
    12:00 +40°C° 0 mm 3 mps 760 mmHg 26%
    13:00 +42°C° 0 mm 4 mps 759 mmHg 24%
    14:00 +42°C° 0 mm 4 mps 759 mmHg 24%
    15:00 +42°C° 0 mm 5 mps 759 mmHg 25%
    16:00 +42°C° 0 mm 5 mps 758 mmHg 26%
    17:00 +40°C° 0 mm 5 mps 758 mmHg 30%
    18:00 +37°C° 0 mm 5 mps 758 mmHg 34%
    19:00 +36°C° 0 mm 4 mps 758 mmHg 38%
    20:00 +35°C° 0 mm 4 mps 758 mmHg 41%
    21:00 +34°C° 0 mm 3 mps 759 mmHg 43%
    22:00 +33°C° 0 mm 3 mps 759 mmHg 46%
    23:00 +33°C° 0 mm 3 mps 759 mmHg 45%

    26 August, Saturday

    Time Temperature Precipitation Wind Pressure Humidity
    00:00 +31°C° 0 mm 3 mps 759 mmHg 44%
    01:00 +31°C° 0 mm 3 mps 759 mmHg 44%
    02:00 +31°C° 0 mm 3 mps 758 mmHg 44%
    03:00 +31°C° 0 mm 3 mps 758 mmHg 45%
    04:00 +30°C° 0 mm 3 mps 758 mmHg 45%
    05:00 +30°C° 0 mm 3 mps 758 mmHg 46%
    06:00 +31°C° 0 mm 3 mps 758 mmHg 46%
    07:00 +31°C° 0 mm 3 mps 758 mmHg 46%
    08:00 +34°C° 0 mm 3 mps 758 mmHg 41%
    09:00 +37°C° 0 mm 2 mps 758 mmHg 36%
    10:00 +39°C° 0 mm 2 mps 759 mmHg 31%
    11:00 +40°C° 0 mm 3 mps 758 mmHg 28%
    12:00 +42°C° 0 mm 3 mps 758 mmHg 26%
    13:00 +43°C° 0 mm 4 mps 758 mmHg 23%
    14:00 +43°C° 0 mm 4 mps 757 mmHg 23%
    15:00 +43°C° 0 mm 5 mps 757 mmHg 24%
    16:00 +43°C° 0 mm 5 mps 757 mmHg 25%
    17:00 +41°C° 0 mm 5 mps 757 mmHg 27%
    18:00 +38°C° 0 mm 4 mps 757 mmHg 30%
    19:00 +37°C° 0 mm 4 mps 757 mmHg 33%
    20:00 +36°C° 0 mm 3 mps 758 mmHg 34%
    21:00 +35°C° 0 mm 3 mps 758 mmHg 36%
    22:00 +34°C° 0 mm 2 mps 758 mmHg 37%
    23:00 +34°C° 0 mm 2 mps 758 mmHg 37%

    27 August, Sunday

    Time Temperature Precipitation Wind Pressure Humidity
    00:00 +32°C° 0 mm 2 mps 758 mmHg 37%
    01:00 +32°C° 0 mm 2 mps 758 mmHg 37%
    02:00 +32°C° 0 mm 2 mps 758 mmHg 38%
    03:00 +31°C° 0 mm 2 mps 758 mmHg 39%
    04:00 +31°C° 0 mm 2 mps 757 mmHg 40%
    05:00 +31°C° 0 mm 2 mps 758 mmHg 40%
    06:00 +32°C° 0 mm 2 mps 758 mmHg 39%
    07:00 +32°C° 0 mm 2 mps 758 mmHg 39%
    08:00 +35°C° 0 mm 2 mps 758 mmHg 35%
    09:00 +38°C° 0 mm 2 mps 758 mmHg 30%
    10:00 +40°C° 0 mm 2 mps 758 mmHg 25%
    11:00 +41°C° 0 mm 2 mps 758 mmHg 24%
    12:00 +43°C° 0 mm 3 mps 758 mmHg 22%
    13:00 +44°C° 0 mm 4 mps 758 mmHg 21%
    14:00 +43°C° 0 mm 5 mps 757 mmHg 22%
    15:00 +43°C° 0 mm 5 mps 757 mmHg 23%
    16:00 +43°C° 0 mm 5 mps 757 mmHg 23%
    17:00 +41°C° 0 mm 5 mps 757 mmHg 27%
    18:00 +38°C° 0 mm 4 mps 757 mmHg 31%
    19:00 +36°C° 0 mm 4 mps 757 mmHg 35%
    20:00 +35°C° 0 mm 3 mps 758 mmHg 37%
    21:00 +34°C° 0 mm 3 mps 758 mmHg 40%
    22:00 +32°C° 0 mm 2 mps 758 mmHg 42%
    23:00 +32°C° 0 mm 2 mps 758 mmHg 42%

    28 August, Monday

    Time Temperature Precipitation Wind Pressure Humidity
    00:00 +31°C° 0 mm 2 mps 758 mmHg 42%
    01:00 +31°C° 0 mm 1 mps 758 mmHg 42%
    02:00 +31°C° 0 mm 1 mps 758 mmHg 42%
    03:00 +30°C° 0 mm 1 mps 758 mmHg 42%
    04:00 +30°C° 0 mm 1 mps 758 mmHg 42%
    05:00 +30°C° 0 mm 1 mps 758 mmHg 41%
    06:00 +31°C° 0 mm 1 mps 758 mmHg 41%
    07:00 +31°C° 0 mm 1 mps 759 mmHg 41%
    08:00 +33°C° 0 mm 1 mps 759 mmHg 36%
    09:00 +36°C° 0 mm 1 mps 759 mmHg 31%
    10:00 +39°C° 0 mm 2 mps 759 mmHg 27%
    11:00 +40°C° 0 mm 2 mps 759 mmHg 25%
    12:00 +42°C° 0 mm 3 mps 759 mmHg 23%
    13:00 +42°C° 0 mm 4 mps 759 mmHg 22%
    14:00 +42°C° 0 mm 4 mps 758 mmHg 23%
    15:00 +41°C° 0 mm 4 mps 758 mmHg 24%
    16:00 +41°C° 0 mm 5 mps 758 mmHg 26%
    17:00 +38°C° 0 mm 4 mps 758 mmHg 30%
    18:00 +36°C° 0 mm 3 mps 759 mmHg 33%
    19:00 +34°C° 0 mm 3 mps 759 mmHg 37%
    20:00 +32°C° 0 mm 2 mps 759 mmHg 40%
    21:00 +31°C° 0 mm 2 mps 760 mmHg 43%
    22:00 +30°C° 0 mm 1 mps 760 mmHg 46%
    23:00 +30°C° 0 mm 1 mps 760 mmHg 45%
    Show more